Location: Walnut Point State Park
(39.6958°N, 88.0345°W)
Time: 22:55:10
(UTC-05:00)

Cosmos 1833 Rocket - Visible Passes

Search period start: 30 May 2016 00:00
Search period end: 09 June 2016 00:00
Orbit: 833 x 840 km, 71.0° (Epoch: 30 May)

Date Brightness Start Highest point End Pass type
(mag) Time Alt. Az. Time Alt. Az. Time Alt. Az.
30 May 2.9 00:50:36 57° E 00:50:36 57° E 00:55:35 10° NNE visible
30 May 4.5 02:32:16 17° W 02:34:23 20° NW 02:38:31 10° N visible
31 May 3.1 00:34:02 52° E 00:34:02 52° E 00:38:53 10° NNE visible
31 May 4.4 02:15:42 18° W 02:17:40 22° NW 02:21:59 10° N visible
01 Jun 3.2 00:17:26 48° E 00:17:26 48° E 00:22:11 10° NNE visible
01 Jun 4.3 01:59:06 20° W 02:00:56 24° NW 02:05:25 10° N visible
02 Jun 3.2 00:00:47 44° E 00:00:47 44° E 00:05:28 10° NE visible
02 Jun 4.3 01:42:28 22° W 01:44:14 25° NW 01:48:52 10° N visible
02 Jun 3.3 23:44:05 41° E 23:44:05 41° E 23:48:44 10° NE visible
03 Jun 4.2 01:25:45 23° W 01:27:31 27° WNW 01:32:17 10° N visible
03 Jun 3.4 23:27:21 38° E 23:27:21 38° E 23:32:00 10° NE visible
04 Jun 4.1 01:09:01 25° W 01:10:48 29° WNW 01:15:42 10° N visible
04 Jun 3.4 23:10:33 35° E 23:10:33 35° E 23:15:16 10° NE visible
05 Jun 4.1 00:52:12 26° W 00:54:05 32° WNW 00:59:06 10° N visible
05 Jun 3.5 22:53:41 33° E 22:53:41 33° E 22:58:31 10° NE visible
06 Jun 4.0 00:35:19 26° W 00:37:23 34° WNW 00:42:31 10° N visible
06 Jun 3.5 22:36:43 30° ESE 22:36:56 30° ESE 22:41:45 10° NE visible
07 Jun 3.9 00:18:22 26° WSW 00:20:42 37° WNW 00:25:54 10° N visible
07 Jun 3.6 22:19:41 27° ESE 22:20:18 27° ESE 22:24:59 10° NE visible
08 Jun 3.8 00:01:18 25° WSW 00:04:00 40° WNW 00:09:17 10° N visible
08 Jun 3.7 22:02:30 23° ESE 22:03:41 25° ESE 22:08:12 10° NE visible
08 Jun 3.6 23:44:07 22° WSW 23:47:18 43° WNW 23:52:41 10° N visible
